Time,TemperatureF,DewpointF,PressureIn,WindDirection,WindDirectionDegrees,WindSpeedMPH,WindSpeedGustMPH,Humidity,HourlyPrecipIn,Conditions,Clouds,dailyrainin,SoftwareType,DateUTC
2013-03-29 00:03:00,64.0,45.0,29.94,North,360,0.0,1.0,51,0.00,,,0.00,,2013-03-29 05:03:00,
2013-03-29 00:12:00,64.0,45.0,29.94,North,360,0.0,1.0,51,0.00,,,0.00,,2013-03-29 05:12:00,
2013-03-29 00:23:00,65.0,46.0,29.93,North,360,0.0,1.0,50,0.00,,,0.00,,2013-03-29 05:23:00,
2013-03-29 00:32:00,64.0,45.0,29.93,North,360,0.0,1.0,51,0.00,,,0.00,,2013-03-29 05:32:00,
2013-03-29 00:43:00,64.0,45.0,29.93,North,360,0.0,1.0,51,0.00,,,0.00,,2013-03-29 05:43:00,
2013-03-29 00:52:00,65.0,46.0,29.93,North,360,0.0,1.0,51,0.00,,,0.00,,2013-03-29 05:52:00,
2013-03-29 01:02:00,65.0,46.0,29.93,NE,45,0.0,1.0,51,0.00,,,0.00,,2013-03-29 06:02:00,
2013-03-29 01:12:00,65.0,46.0,29.93,NE,45,0.0,1.0,51,0.00,,,0.00,,2013-03-29 06:12:00,
2013-03-29 01:23:00,64.0,45.0,29.93,North,360,0.0,0.0,50,0.00,,,0.00,,2013-03-29 06:23:00,
2013-03-29 01:32:00,64.0,45.0,29.93,North,360,0.0,0.0,50,0.00,,,0.00,,2013-03-29 06:32:00,
2013-03-29 01:42:00,64.0,45.0,29.93,North,360,0.0,0.0,50,0.00,,,0.00,,2013-03-29 06:42:00,
2013-03-29 01:52:00,64.0,45.0,29.93,North,360,0.0,2.0,51,0.00,,,0.00,,2013-03-29 06:52:00,
2013-03-29 02:03:00,64.0,46.0,29.93,NE,45,0.0,8.0,52,0.00,,,0.00,,2013-03-29 07:03:00,
2013-03-29 02:12:00,64.0,46.0,29.93,NE,45,0.0,8.0,52,0.00,,,0.00,,2013-03-29 07:12:00,
2013-03-29 02:22:00,64.0,46.0,29.92,North,360,0.0,1.0,52,0.00,,,0.00,,2013-03-29 07:22:00,
2013-03-29 02:32:00,64.0,46.0,29.92,NE,45,0.0,1.0,52,0.00,,,0.00,,2013-03-29 07:32:00,
2013-03-29 02:42:00,64.0,46.0,29.92,NE,45,0.0,1.0,52,0.00,,,0.00,,2013-03-29 07:42:00,
2013-03-29 02:52:00,64.0,46.0,29.92,North,360,0.0,1.0,52,0.00,,,0.00,,2013-03-29 07:52:00,
2013-03-29 03:02:00,64.0,47.0,29.92,NE,45,0.0,4.0,53,0.00,,,0.00,,2013-03-29 08:02:00,
2013-03-29 03:12:00,64.0,47.0,29.92,NE,45,0.0,4.0,53,0.00,,,0.00,,2013-03-29 08:12:00,
2013-03-29 03:22:00,64.0,47.0,29.92,NE,45,0.0,4.0,53,0.00,,,0.00,,2013-03-29 08:22:00,
2013-03-29 03:32:00,64.0,47.0,29.91,North,360,0.0,7.0,53,0.00,,,0.00,,2013-03-29 08:32:00,
2013-03-29 03:42:00,64.0,47.0,29.91,North,360,0.0,7.0,53,0.00,,,0.00,,2013-03-29 08:42:00,
2013-03-29 03:53:00,64.0,47.0,29.91,NE,45,0.0,6.0,54,0.00,,,0.00,,2013-03-29 08:53:00,
2013-03-29 04:02:00,64.0,47.0,29.91,North,360,2.0,6.0,54,0.00,,,0.00,,2013-03-29 09:02:00,
2013-03-29 04:13:00,64.0,47.0,29.91,North,360,2.0,6.0,54,0.00,,,0.00,,2013-03-29 09:13:00,
2013-03-29 04:22:00,64.0,47.0,29.91,NE,45,0.0,4.0,54,0.00,,,0.00,,2013-03-29 09:22:00,
2013-03-29 04:33:00,64.0,47.0,29.91,North,360,0.0,0.0,55,0.00,,,0.00,,2013-03-29 09:33:00,
2013-03-29 04:42:00,64.0,47.0,29.91,North,360,0.0,0.0,55,0.00,,,0.00,,2013-03-29 09:42:00,
2013-03-29 04:52:00,63.0,47.0,29.91,North,360,0.0,4.0,56,0.00,,,0.00,,2013-03-29 09:52:00,
2013-03-29 05:02:00,63.0,48.0,29.91,NE,45,0.0,0.0,57,0.00,,,0.00,,2013-03-29 10:02:00,
2013-03-29 05:12:00,63.0,48.0,29.91,NE,45,0.0,0.0,57,0.00,,,0.00,,2013-03-29 10:12:00,
2013-03-29 05:22:00,63.0,48.0,29.91,NE,45,0.0,3.0,57,0.00,,,0.00,,2013-03-29 10:22:00,
2013-03-29 05:33:00,63.0,48.0,29.91,NE,45,0.0,3.0,57,0.00,,,0.00,,2013-03-29 10:33:00,
2013-03-29 05:42:00,63.0,48.0,29.91,NE,45,0.0,3.0,57,0.00,,,0.00,,2013-03-29 10:42:00,
2013-03-29 05:52:00,63.0,48.0,29.92,East,90,0.0,3.0,59,0.00,,,0.00,,2013-03-29 10:52:00,
2013-03-29 06:03:00,62.0,48.0,29.92,East,90,0.0,3.0,60,0.00,,,0.00,,2013-03-29 11:03:00,
2013-03-29 06:12:00,62.0,48.0,29.92,East,90,0.0,3.0,60,0.00,,,0.00,,2013-03-29 11:12:00,
2013-03-29 06:23:00,62.0,49.0,29.92,NE,45,2.0,5.0,62,0.00,,,0.00,,2013-03-29 11:23:00,
2013-03-29 06:32:00,62.0,49.0,29.92,East,90,0.0,4.0,63,0.00,,,0.00,,2013-03-29 11:32:00,
2013-03-29 06:42:00,62.0,49.0,29.92,East,90,0.0,4.0,63,0.00,,,0.00,,2013-03-29 11:42:00,
2013-03-29 06:52:00,62.0,49.0,29.92,East,90,0.0,4.0,63,0.00,,,0.00,,2013-03-29 11:52:00,
2013-03-29 07:02:00,61.0,49.0,29.93,NE,45,0.0,2.0,64,0.00,,,0.00,,2013-03-29 12:02:00,
2013-03-29 07:12:00,61.0,49.0,29.93,NE,45,0.0,2.0,64,0.00,,,0.00,,2013-03-29 12:12:00,
2013-03-29 07:22:00,61.0,49.0,29.93,North,360,0.0,3.0,65,0.00,,,0.00,,2013-03-29 12:22:00,
2013-03-29 07:32:00,60.0,48.0,29.94,NE,45,0.0,0.0,65,0.00,,,0.00,,2013-03-29 12:32:00,
2013-03-29 07:42:00,60.0,48.0,29.94,NE,45,0.0,0.0,65,0.00,,,0.00,,2013-03-29 12:42:00,
2013-03-29 07:52:00,60.0,49.0,29.94,NE,45,0.0,0.0,66,0.00,,,0.00,,2013-03-29 12:52:00,
2013-03-29 08:03:00,61.0,50.0,29.95,NE,45,0.0,0.0,67,0.00,,,0.00,,2013-03-29 13:03:00,
2013-03-29 08:12:00,61.0,50.0,29.95,NE,45,0.0,0.0,67,0.00,,,0.00,,2013-03-29 13:12:00,
2013-03-29 08:22:00,61.0,50.0,29.95,NE,45,0.0,0.0,66,0.00,,,0.00,,2013-03-29 13:22:00,
2013-03-29 08:32:00,62.0,51.0,29.96,East,90,0.0,0.0,66,0.00,,,0.00,,2013-03-29 13:32:00,
2013-03-29 08:42:00,62.0,51.0,29.96,East,90,0.0,0.0,66,0.00,,,0.00,,2013-03-29 13:42:00,
2013-03-29 08:52:00,63.0,51.0,29.96,NE,45,0.0,0.0,64,0.00,,,0.00,,2013-03-29 13:52:00,
2013-03-29 09:03:00,63.0,50.0,29.96,NE,45,0.0,1.0,63,0.00,,,0.00,,2013-03-29 14:03:00,
2013-03-29 09:12:00,63.0,50.0,29.96,NE,45,0.0,1.0,63,0.00,,,0.00,,2013-03-29 14:12:00,
2013-03-29 09:22:00,64.0,51.0,29.96,North,360,0.0,4.0,63,0.00,,,0.00,,2013-03-29 14:22:00,
2013-03-29 09:32:00,65.0,50.0,29.96,East,90,4.0,11.0,58,0.00,,,0.00,,2013-03-29 14:32:00,
2013-03-29 09:42:00,65.0,50.0,29.96,East,90,4.0,11.0,58,0.00,,,0.00,,2013-03-29 14:42:00,
2013-03-29 09:52:00,66.0,51.0,29.96,North,360,2.0,11.0,58,0.00,,,0.00,,2013-03-29 14:52:00,
2013-03-29 10:02:00,66.0,50.0,29.96,East,90,4.0,12.0,57,0.00,,,0.00,,2013-03-29 15:02:00,
2013-03-29 10:12:00,66.0,50.0,29.96,East,90,4.0,12.0,57,0.00,,,0.00,,2013-03-29 15:12:00,
2013-03-29 10:22:00,68.0,51.0,29.96,ESE,112,4.0,8.0,54,0.00,,,0.00,,2013-03-29 15:22:00,
2013-03-29 10:33:00,68.0,50.0,29.96,ESE,112,4.0,11.0,53,0.00,,,0.00,,2013-03-29 15:33:00,
2013-03-29 10:43:00,68.0,50.0,29.96,ESE,112,4.0,11.0,53,0.00,,,0.00,,2013-03-29 15:43:00,
2013-03-29 10:53:00,69.0,52.0,29.95,East,90,0.0,14.0,54,0.00,,,0.00,,2013-03-29 15:53:00,
2013-03-29 11:03:00,70.0,52.0,29.94,East,90,0.0,10.0,52,0.00,,,0.00,,2013-03-29 16:03:00,
2013-03-29 11:13:00,70.0,52.0,29.94,East,90,0.0,10.0,52,0.00,,,0.00,,2013-03-29 16:13:00,
2013-03-29 11:23:00,70.0,52.0,29.94,East,90,0.0,10.0,52,0.00,,,0.00,,2013-03-29 16:23:00,
2013-03-29 11:32:00,69.0,50.0,29.95,SE,135,2.0,11.0,51,0.00,,,0.00,,2013-03-29 16:32:00,
2013-03-29 11:42:00,69.0,50.0,29.95,SE,135,2.0,11.0,51,0.00,,,0.00,,2013-03-29 16:42:00,
2013-03-29 11:53:00,69.0,51.0,29.94,SE,135,4.0,11.0,52,0.00,,,0.00,,2013-03-29 16:53:00,
2013-03-29 12:03:00,69.0,50.0,29.94,East,90,3.0,10.0,51,0.00,,,0.00,,2013-03-29 17:03:00,
2013-03-29 12:12:00,69.0,50.0,29.94,East,90,3.0,10.0,51,0.00,,,0.00,,2013-03-29 17:12:00,
2013-03-29 12:22:00,70.0,50.0,29.93,East,90,3.0,8.0,50,0.00,,,0.00,,2013-03-29 17:22:00,
2013-03-29 12:33:00,71.0,50.0,29.93,SE,135,8.0,12.0,48,0.00,,,0.00,,2013-03-29 17:33:00,
2013-03-29 12:42:00,71.0,50.0,29.93,SE,135,8.0,12.0,48,0.00,,,0.00,,2013-03-29 17:42:00,
2013-03-29 12:53:00,71.0,50.0,29.93,SE,135,8.0,12.0,48,0.00,,,0.00,,2013-03-29 17:53:00,
2013-03-29 13:02:00,71.0,50.0,29.93,SE,135,2.0,10.0,47,0.00,,,0.00,,2013-03-29 18:02:00,
2013-03-29 13:12:00,71.0,50.0,29.93,SE,135,2.0,10.0,47,0.00,,,0.00,,2013-03-29 18:12:00,
2013-03-29 13:23:00,71.0,49.0,29.92,SE,135,4.0,7.0,46,0.00,,,0.00,,2013-03-29 18:23:00,
2013-03-29 13:32:00,72.0,49.0,29.92,SE,135,0.0,7.0,45,0.00,,,0.00,,2013-03-29 18:32:00,
2013-03-29 13:43:00,72.0,49.0,29.92,SE,135,0.0,7.0,45,0.00,,,0.00,,2013-03-29 18:43:00,
2013-03-29 13:52:00,74.0,51.0,29.92,SW,225,0.0,9.0,44,0.00,,,0.00,,2013-03-29 18:52:00,
2013-03-29 14:02:00,73.0,50.0,29.92,South,180,0.0,2.0,44,0.00,,,0.00,,2013-03-29 19:02:00,
2013-03-29 14:12:00,72.0,49.0,29.91,SW,225,0.0,2.0,45,0.00,,,0.00,,2013-03-29 19:12:00,
2013-03-29 14:23:00,72.0,49.0,29.91,SW,225,0.0,2.0,45,0.00,,,0.00,,2013-03-29 19:23:00,
2013-03-29 14:32:00,71.0,50.0,29.92,South,180,0.0,2.0,48,0.00,,,0.00,,2013-03-29 19:32:00,
2013-03-29 14:42:00,71.0,50.0,29.92,South,180,0.0,2.0,48,0.00,,,0.00,,2013-03-29 19:42:00,
2013-03-29 14:52:00,71.0,50.0,29.92,South,180,0.0,2.0,48,0.00,,,0.00,,2013-03-29 19:52:00,
2013-03-29 15:02:00,70.0,50.0,29.91,South,180,0.0,1.0,49,0.00,,,0.00,,2013-03-29 20:02:00,
2013-03-29 15:12:00,70.0,50.0,29.91,South,180,0.0,1.0,49,0.00,,,0.00,,2013-03-29 20:12:00,
2013-03-29 15:22:00,70.0,52.0,29.91,South,180,0.0,1.0,52,0.00,,,0.00,,2013-03-29 20:22:00,
2013-03-29 15:33:00,68.0,53.0,29.93,South,180,0.0,2.0,58,0.00,,,0.00,,2013-03-29 20:33:00,
2013-03-29 15:42:00,68.0,53.0,29.93,South,180,0.0,2.0,58,0.00,,,0.00,,2013-03-29 20:42:00,
2013-03-29 15:52:00,68.0,53.0,29.93,South,180,0.0,2.0,58,0.00,,,0.00,,2013-03-29 20:52:00,
2013-03-29 16:02:00,65.0,54.0,29.91,West,270,0.0,4.0,68,0.01,,,0.01,,2013-03-29 21:02:00,
2013-03-29 16:12:00,65.0,54.0,29.91,West,270,0.0,4.0,68,0.01,,,0.01,,2013-03-29 21:12:00,
2013-03-29 16:22:00,65.0,54.0,29.91,West,270,0.0,4.0,68,0.01,,,0.01,,2013-03-29 21:22:00,
2013-03-29 16:33:00,65.0,54.0,29.91,West,270,0.0,4.0,68,0.01,,,0.01,,2013-03-29 21:33:00,
2013-03-29 16:42:00,65.0,54.0,29.91,West,270,0.0,4.0,68,0.01,,,0.01,,2013-03-29 21:42:00,
2013-03-29 16:53:00,65.0,58.0,29.86,North,360,0.0,1.0,77,0.01,,,0.01,,2013-03-29 21:53:00,
2013-03-29 17:03:00,68.0,58.0,29.84,North,360,0.0,2.0,71,0.01,,,0.02,,2013-03-29 22:03:00,
2013-03-29 17:12:00,68.0,58.0,29.84,North,360,0.0,2.0,71,0.01,,,0.02,,2013-03-29 22:12:00,
2013-03-29 17:22:00,70.0,57.0,29.85,North,360,4.0,8.0,64,0.01,,,0.02,,2013-03-29 22:22:00,
2013-03-29 17:33:00,72.0,55.0,29.85,North,360,0.0,2.0,55,0.01,,,0.02,,2013-03-29 22:33:00,
2013-03-29 17:42:00,72.0,55.0,29.85,North,360,0.0,2.0,55,0.01,,,0.02,,2013-03-29 22:42:00,
2013-03-29 17:52:00,72.0,53.0,29.85,NE,45,0.0,1.0,52,0.01,,,0.02,,2013-03-29 22:52:00,
2013-03-29 18:03:00,71.0,54.0,29.84,NE,45,1.0,7.0,55,0.00,,,0.02,,2013-03-29 23:03:00,
2013-03-29 18:12:00,71.0,54.0,29.84,NE,45,1.0,7.0,55,0.00,,,0.02,,2013-03-29 23:12:00,
2013-03-29 18:22:00,72.0,52.0,29.86,South,180,0.0,9.0,49,0.00,,,0.02,,2013-03-29 23:22:00,
2013-03-29 18:32:00,73.0,53.0,29.87,SW,225,0.0,2.0,50,0.00,,,0.02,,2013-03-29 23:32:00,
2013-03-29 18:42:00,73.0,53.0,29.87,SW,225,0.0,2.0,50,0.00,,,0.02,,2013-03-29 23:42:00,
2013-03-29 18:52:00,73.0,53.0,29.87,SW,225,0.0,2.0,50,0.00,,,0.02,,2013-03-29 23:52:00,
2013-03-29 19:03:00,72.0,55.0,29.88,West,270,0.0,2.0,55,0.00,,,0.02,,2013-03-30 00:03:00,
2013-03-29 19:12:00,72.0,55.0,29.88,West,270,0.0,2.0,55,0.00,,,0.02,,2013-03-30 00:12:00,
2013-03-29 19:22:00,70.0,55.0,29.88,West,270,0.0,1.0,58,0.00,,,0.02,,2013-03-30 00:22:00,
2013-03-29 19:32:00,69.0,55.0,29.88,West,270,0.0,1.0,60,0.00,,,0.02,,2013-03-30 00:32:00,
2013-03-29 19:42:00,69.0,55.0,29.88,West,270,0.0,1.0,60,0.00,,,0.02,,2013-03-30 00:42:00,
2013-03-29 19:53:00,66.0,54.0,29.88,West,270,0.0,0.0,65,0.00,,,0.02,,2013-03-30 00:53:00,
2013-03-29 20:02:00,65.0,55.0,29.87,West,270,0.0,0.0,69,0.00,,,0.02,,2013-03-30 01:02:00,
2013-03-29 20:12:00,65.0,55.0,29.87,West,270,0.0,0.0,69,0.00,,,0.02,,2013-03-30 01:12:00,
2013-03-29 20:22:00,65.0,55.0,29.87,West,270,0.0,0.0,69,0.00,,,0.02,,2013-03-30 01:22:00,
2013-03-29 20:32:00,64.0,55.0,29.87,North,360,0.0,0.0,72,0.00,,,0.02,,2013-03-30 01:32:00,
2013-03-29 20:42:00,64.0,55.0,29.87,North,360,0.0,0.0,72,0.00,,,0.02,,2013-03-30 01:42:00,
2013-03-29 20:53:00,63.0,56.0,29.86,North,360,0.0,0.0,77,0.00,,,0.02,,2013-03-30 01:53:00,
2013-03-29 21:02:00,63.0,57.0,29.86,NW,315,0.0,0.0,81,0.00,,,0.02,,2013-03-30 02:02:00,
2013-03-29 21:12:00,63.0,57.0,29.86,NW,315,0.0,0.0,81,0.00,,,0.02,,2013-03-30 02:12:00,
2013-03-29 21:22:00,63.0,57.0,29.87,North,360,0.0,0.0,81,0.00,,,0.02,,2013-03-30 02:22:00,
2013-03-29 21:32:00,62.0,56.0,29.87,North,360,0.0,0.0,82,0.00,,,0.02,,2013-03-30 02:32:00,
2013-03-29 21:42:00,62.0,56.0,29.87,North,360,0.0,0.0,82,0.00,,,0.02,,2013-03-30 02:42:00,
2013-03-29 21:53:00,62.0,57.0,29.88,NW,315,0.0,0.0,83,0.00,,,0.02,,2013-03-30 02:53:00,
2013-03-29 22:02:00,62.0,56.0,29.88,West,270,0.0,0.0,82,0.00,,,0.02,,2013-03-30 03:02:00,
2013-03-29 22:12:00,62.0,57.0,29.89,South,180,0.0,0.0,83,0.00,,,0.02,,2013-03-30 03:12:00,
2013-03-29 22:22:00,62.0,57.0,29.89,South,180,0.0,0.0,83,0.00,,,0.02,,2013-03-30 03:22:00,
2013-03-29 22:33:00,62.0,57.0,29.89,NW,315,0.0,0.0,83,0.00,,,0.02,,2013-03-30 03:33:00,
2013-03-29 22:43:00,62.0,57.0,29.89,NW,315,0.0,0.0,83,0.00,,,0.02,,2013-03-30 03:43:00,
2013-03-29 22:53:00,62.0,57.0,29.88,NW,315,0.0,0.0,84,0.00,,,0.02,,2013-03-30 03:53:00,
2013-03-29 23:02:00,62.0,58.0,29.88,NW,315,0.0,0.0,87,0.00,,,0.02,,2013-03-30 04:02:00,
2013-03-29 23:12:00,62.0,58.0,29.88,NW,315,0.0,0.0,87,0.00,,,0.02,,2013-03-30 04:12:00,
2013-03-29 23:23:00,62.0,58.0,29.88,NW,315,0.0,1.0,87,0.00,,,0.02,,2013-03-30 04:23:00,
2013-03-29 23:32:00,62.0,58.0,29.88,NW,315,0.0,0.0,88,0.00,,,0.02,,2013-03-30 04:32:00,
2013-03-29 23:42:00,62.0,58.0,29.88,NW,315,0.0,0.0,88,0.00,,,0.02,,2013-03-30 04:42:00,
2013-03-29 23:52:00,62.0,59.0,29.87,NW,315,0.0,0.0,91,0.00,,,0.02,,2013-03-30 04:52:00,